Location: Sungai Apap
(2.6167°N, 113.3833°E)
Time: 13:55:57
(UTC+00:00)

deb r/b Ablestar - Visible Passes

Search period start: 03 October 2024 00:00
Search period end: 13 October 2024 00:00
Orbit: 926 x 1028 km, 66.8° (Epoch: 02 October)

Date Brightness Start Highest point End Pass type
(mag) Time Alt. Az. Time Alt. Az. Time Alt. Az.
07 Oct ? 12:12:55 10° N 12:13:11 11° N 12:13:11 11° N visible
08 Oct ? 12:38:34 10° NNW 12:39:55 17° NNW 12:39:55 17° NNW visible
09 Oct ? 11:18:30 10° NNE 11:22:17 23° NE 11:22:17 23° NE visible
09 Oct ? 13:05:25 10° NW 13:07:06 17° WNW 13:07:06 17° WNW visible
10 Oct ? 11:43:12 10° N 11:49:12 59° ENE 11:50:11 53° ESE visible
11 Oct ? 12:09:09 10° NNW 12:15:05 55° WSW 12:20:13 14° S visible
12 Oct ? 10:48:28 10° N 10:53:43 30° ENE 10:58:57 10° SE visible
12 Oct ? 12:36:25 10° WNW 12:40:58 22° WSW 12:45:32 10° SSW visible
